Regional Weather Roundup
Issued by NWS Charleston, SC

Current Version | Previous Version | Text Only | Print | Product List | Glossary Off
Versions: 1 2 3 4 5 6 7 8 9 10 11 12 13 14 15 16 17 18 19 20 21 22 23 24 25 26 27 28 29 30 31 32 33 34 35 36 37 38 39 40 41 42 43 44 45 46 47 48 49 50

953
ASUS42 KCHS 211212
RWRCHS

REGIONAL WEATHER ROUNDUP
NATIONAL WEATHER SERVICE CHARLESTON SC
700 AM EST TUE FEB 21 2017

NOTE: "FAIR" INDICATES FEW OR NO CLOUDS BELOW 12,000 FEET WITH NO
SIGNIFICANT WEATHER AND/OR OBSTRUCTIONS TO VISIBILITY.

NOT ALL STATIONS ARE QUALITY CONTROLLED. USE DATA WITH CAUTION...
ESPECIALLY DEWPOINT OBSERVATIONS.

SCZ027-030-031-034>040-042>050-211300-
...SOUTHEAST SOUTH CAROLINA...

CITY           SKY/WX    TMP DP  RH WIND       PRES   REMARKS
N CHARLESTON   CLOUDY    56  53  90 NE7       30.18S
6HR MIN TEMP:  50; 6HR MAX TEMP:  56;

WATERFRONT PRK   N/A     60  57  89 NE7       30.17S
MOUNT PLEASANT LGT RAIN  55  55 100 CALM      30.19S
JOHNS ISLAND   PTSUNNY   59  55  88 NE6       30.18S
PINOPOLIS        N/A     57  54  88 E7        30.11R
MONCKS CORNER  FAIR      54  50  87 E3        30.19S
SUMMERVILLE    FAIR      50  50 100 CALM      30.19F
BEAUFORT MCAS  CLOUDY    58  58 100 N3        30.17S FOG
6HR MIN TEMP:  54; 6HR MAX TEMP:  58;

BEAUFORT ARPT  PTSUNNY   59  57  94 NE7       30.17R
HILTON HEAD IS CLOUDY    61  61 100 NE6       30.17R
WALTERBORO     PTSUNNY   54  52  94 CALM      30.19S
ALLENDALE      CLOUDY    54  52  94 CALM      30.16F

...SOUTHERN MIDLANDS AND PEE DEE...

CITY           SKY/WX    TMP DP  RH WIND       PRES   REMARKS
GEORGETOWN     FAIR      52  52 100 E3        30.22R
KINGSTREE      FAIR      50  46  87 CALM      30.22R
ORANGEBURG     MOCLDY    53  51  93 E6        30.18F
6HR MIN TEMP:  50; 6HR MAX TEMP:  53;

BARNWELL       PTSUNNY   54  52  94 E5        30.17F
AIKEN          FAIR      50  45  81 SE3       30.21R
MANNING        FAIR      50  43  76 MISG      30.20F
COLUMBIA       CLOUDY    53  47  79 CALM      30.19R
6HR MIN TEMP:  50; 6HR MAX TEMP:  53;

SUMTER         CLOUDY    47  45  93 NE6       30.18S
6HR MIN TEMP:  47; 6HR MAX TEMP:  51;

FLORENCE       CLOUDY    47  45  93 NE5       30.23R
6HR MIN TEMP:  47; 6HR MAX TEMP:  53;

MYRTLE BEACH   CLEAR     50  46  87 N7        30.23R
N MYRTLE BEACH CLOUDY    49  47  93 NE5       30.22S
6HR MIN TEMP:  48; 6HR MAX TEMP:  58;


$$

GAZ063-065-086>088-099>101-113>116-118-119-134>141-150-211300-
...SOUTHEAST GEORGIA...

CITY           SKY/WX    TMP DP  RH WIND       PRES   REMARKS
SAVANNAH ARPT  MOCLDY    57  54  89 CALM      30.16S
6HR MIN TEMP:  54; 6HR MAX TEMP:  58;

HUNTER AAF     MOCLDY    55  55 100 CALM      30.14R FOG
FORT STEWART   PTCLDY    52  50  93 CALM      30.13S
6HR MIN TEMP:  51; 6HR MAX TEMP:  54;

STATESBORO     CLOUDY    49  49 100 CALM      30.16S
SYLVANIA       MOSUNNY  N/A N/A N/A E3        30.17S
CLAXTON        FAIR     N/A N/A N/A CALM      30.16S

...CSRA...CENTRAL AND FAR SOUTHEAST GEORGIA...

CITY           SKY/WX    TMP DP  RH WIND       PRES   REMARKS
THOMSON        MOCLDY    47  47 100 CALM      30.21R
AUGUSTA-BUSH   CLOUDY    48  45  89 CALM      30.16S FOG
6HR MIN TEMP:  47; 6HR MAX TEMP:  52;

AUGUSTA-DANIEL PTCLDY    55  46  71 E6        30.16S
SWAINSBORO     FAIR      54  52  94 E5        30.16S
VIDALIA        MOCLDY    54  54 100 E6        30.15S
EASTMAN        FAIR      51  48  89 CALM      30.16R
HAZLEHURST     FAIR      57  57 100 E3        30.12S
ALMA           MOCLDY    55  55 100 E6        30.12S FOG
6HR MIN TEMP:  48; 6HR MAX TEMP:  55;

WAYCROSS       FOG       58  58 100 E5        30.12F VSB 3/4
JESUP          FOG       52  50  93 CALM      30.15S VSB 1/4
BAXLEY         FAIR      55  55 100 E3        30.13S
BRUNSWICK      FOG       54  54 100 CALM      30.15S VSB 1
SAINT SIMONS   MOCLDY    61  59  93 NE5       30.14R
6HR MIN TEMP:  60; 6HR MAX TEMP:  64;


$$

SCZ027-028-034-036>038-045-046-048>050-GAZ119-141-211300-
...LAKE AND SUPPLEMENTAL COASTAL OBSERVATIONS...

STATION/POSITION TIME  TEMP    WIND        PRES    WAVE   SWELL
                       AIR SEA DIR/SP/G            HT/PER HT/PER/DIR
                 (UTC) (F)     (DEG/KT/KT) (MB)    (FT/S) (FT/S/D)
WINYAH BAY       1045   57      50/  7     1022.0
LAKE MURRAY      1120   54      90/  7/  9 1021.7S
ACE BASIN NERRS  NOT AVBL
FORT PULASKI     1136   62 60   60/  8/ 10 1021.5R
SAPELO ISLAND    1100   60      60/  3     1021.0

$$

ANZ835-935-AMZ111-154-330-350-352-354-370-450-454-472-211300-
...C-MAN AND BUOY OBSERVATIONS...

STATION/POSITION TIME  TEMP    WIND        PRES    WAVE   SWELL
                       AIR SEA DIR/SP/G            HT/PER HT/PER/DIR
                 (UTC) (F)     (DEG/KT/KT) (MB)    (FT/S) (FT/S/D)
BUOY 41004       1150   68 67   80/ 16/ 17 1021.1R   4/ 6   2/ 80/11
BUOY 41008       1050   64 62   70/  8/ 10 1020.0    1/ 4   2/100/ 7
FOLLY BEACH CMAN 1100   61      40/ 10/ 11 1022.2R
CAPERS NEARSHORE 1108   60 59   60/  8/ 10 1021.7R
FRIPP NEARSHORE  1108   61 60   50/  8/ 12 1021.0R


STATION/POSITION TIME  TEMP    WIND        PRES    WAVE   SWELL
                       AIR SEA DIR/SP/G            HT/PER HT/PER/DIR
                 (UTC) (F)     (DEG/KT/KT) (MB)    (FT/S) (FT/S/D)
5E ST. MARYS GA  1130      64                N/A     1/ 4
FRYING PAN BUOY  1150   66 67   60/ 14/ 17 1023.0R   5/ 6   2/ 80/14
BUOY 41025       1150   63 76   80/ 14/ 19 1023.4R   7/ 9   5/ 50/ 9
CAPE LOOKOUT NC  1100   51      20/ 11/ 13 1023.4R
BUOY 41002       1050   66 71   50/ 14/ 19 1020.8    5/ 6   2/ 90/13
BUOY 41010       NOT AVBL
ST AUGUSTINE FL  1200   65 67  230/  2/  2 1021.2R


$$




USA.gov is the U.S. government's official web portal to all federal, state and local government web resources and services.